Location: Il Ritiro
(43.4167°N, 13.1333°E)
Time: 00:06:40
(UTC+00:00)

Cosmos 2218 Rocket - Pass Details

Date: 05 July 2020
Orbit: 955 x 1007 km, 82.9° (Epoch: 11 August)

Event Time Altitude Azimuth Distance (km) Brightness Sun altitude
Exits shadow 22:50:54 50° 187° (S) 1,260 4.1 -23.7°
Maximum altitude 22:52:47 90° 277° (W) 1,003 4.0 -23.8°
Drops below altitude 10° 22:59:08 10° 8° (N) 2,756 7.4 -23.8°
Sets 23:01:39 0° 9° (N) 3,701 8.4 -23.9°
